FW0735 Weather Reports


Display with metric or nautical units.
time (UTC)temp
F
wind
direction
speed
MPH
gust
MPH
rain 1hr
in
rain 24hr
in
rain mn
in
humidity
%
barometer
mb
20191019111003 79 149 15.0 19.0 0.00 0.00 0.00 68 1016.0
20191019110505 79 154 15.0 18.0 0.00 0.00 0.00 69 1015.9
20191019110005 80 176 15.0 18.0 0.00 0.00 0.00 68 1016.2
20191019105503 80 182 15.0 19.0 0.00 0.00 0.00 68 1016.2
20191019105003 80 169 15.0 19.0 0.00 0.00 0.00 69 1016.2
20191019104504 80 162 14.0 18.0 0.00 0.00 0.00 69 1016.1
20191019104003 80 168 14.0 18.0 0.00 0.00 0.00 70 1016.2
20191019103503 79 170 13.0 16.0 0.00 0.00 0.00 70 1016.2
20191019103004 79 152 13.0 16.0 0.00 0.00 0.00 69 1016.1
20191019102503 79 143 13.0 15.0 0.00 0.00 0.00 70 1016.0
20191019102004 79 141 13.0 16.0 0.00 0.00 0.00 71 1016.1
20191019101503 79 140 13.0 16.0 0.00 0.00 0.00 71 1016.2
20191019101003 79 148 13.0 16.0 0.00 0.00 0.00 71 1016.2
20191019100503 80 159 13.0 17.0 0.00 0.00 0.00 70 1016.1
20191019100004 79 156 13.0 17.0 0.00 0.00 0.00 72 1016.2
20191019095503 79 152 13.0 18.0 0.00 0.00 0.00 73 1016.3
20191019095004 79 153 13.0 18.0 0.00 0.00 0.00 74 1016.4
20191019094504 79 158 13.0 17.0 0.00 0.00 0.00 72 1016.4
20191019094003 79 165 13.0 17.0 0.00 0.00 0.00 72 1016.5
20191019093503 79 162 13.0 15.0 0.00 0.00 0.00 72 1016.6
20191019093004 79 150 13.0 16.0 0.00 0.00 0.00 73 1016.6
20191019092504 79 139 13.0 16.0 0.00 0.00 0.00 72 1016.5
20191019092003 79 140 14.0 16.0 0.00 0.00 0.00 73 1016.6
20191019091507 79 141 15.0 17.0 0.00 0.00 0.00 73 1016.6
20191019091003 78 144 14.0 17.0 0.00 0.00 0.00 72 1016.7
20191019090504 78 142 14.0 16.0 0.00 0.00 0.00 72 1016.8
20191019090004 78 141 13.0 15.0 0.00 0.00 0.00 72 1016.8
20191019085503 79 147 14.0 15.0 0.00 0.00 0.00 72 1016.9
20191019085006 79 145 14.0 16.0 0.00 0.00 0.00 72 1016.8
20191019084504 78 139 13.0 17.0 0.00 0.00 0.00 72 1016.9
20191019084003 78 135 13.0 17.0 0.00 0.00 0.00 72 1016.9
20191019083504 78 133 14.0 16.0 0.00 0.00 0.00 73 1016.8
20191019083003 78 131 13.0 16.0 0.00 0.00 0.00 74 1017.0
20191019082504 78 129 12.0 15.0 0.00 0.00 0.00 74 1016.8
20191019082003 79 131 11.0 14.0 0.00 0.00 0.00 73 1016.9
20191019081503 79 135 9.0 14.0 0.00 0.00 0.00 72 1016.9
20191019081003 80 147 9.0 13.0 0.00 0.00 0.00 71 1016.9
20191019080503 79 137 8.0 12.0 0.00 0.00 0.00 70 1017.0
20191019080004 79 117 7.0 12.0 0.00 0.00 0.00 71 1016.9
20191019075503 79 110 6.0 10.0 0.00 0.00 0.00 70 1017.0
20191019075003 79 108 6.0 9.0 0.00 0.00 0.00 69 1017.0
20191019074503 79 108 5.0 9.0 0.00 0.00 0.00 68 1017.0
20191019074003 79 110 3.0 9.0 0.00 0.00 0.00 68 1017.0
20191019073504 80 111 2.0 9.0 0.00 0.00 0.00 67 1017.0
20191019073006 79 283 2.0 6.0 0.00 0.00 0.00 69 1016.9
20191019072504 79 270 2.0 6.0 0.00 0.00 0.00 68 1017.0
20191019072003 79 266 2.0 4.0 0.00 0.00 0.00 68 1016.9
20191019071504 79 268 1.0 4.0 0.00 0.00 0.00 68 1017.0
20191019071004 79 267 1.0 3.0 0.00 0.00 0.00 67 1017.1
20191019070503 79 279 1.0 3.0 0.00 0.00 0.00 67 1017.1
20191019070004 79 292 1.0 2.0 0.00 0.00 0.00 67 1017.1
20191019065503 79 316 2.0 2.0 0.00 0.00 0.00 68 1017.1
20191019065004 78 302 2.0 4.0 0.00 0.00 0.00 68 1017.1
20191019064503 78 293 2.0 4.0 0.00 0.00 0.00 68 1017.0
20191019064003 77 297 2.0 4.0 0.00 0.00 0.00 68 1017.1
20191019063503 77 302 2.0 4.0 0.00 0.00 0.00 69 1017.1
20191019063004 77 302 2.0 4.0 0.00 0.00 0.00 70 1017.1
20191019062503 76 301 2.0 4.0 0.00 0.00 0.00 71 1017.1
20191019062003 75 300 2.0 4.0 0.00 0.00 0.00 72 1017.1
20191019061504 75 298 2.0 4.0 0.00 0.00 0.00 73 1017.0
20191019061003 74 297 2.0 4.0 0.00 0.00 0.00 73 1017.1
20191019060504 73 299 3.0 4.0 0.00 0.00 0.00 74 1017.0
20191019060004 73 297 4.0 4.0 0.00 0.00 0.00 75 1017.0
20191019055504 72 297 4.0 4.0 0.00 0.00 0.00 75 1016.9
20191019055004 72 296 5.0 5.0 0.00 0.00 0.00 75 1016.9
20191019054503 71 294 5.0 5.0 0.00 0.00 0.00 75 1016.9
20191019054004 71 294 5.0 6.0 0.00 0.00 0.00 76 1016.8
20191019053504 71 288 6.0 6.0 0.00 0.00 0.00 77 1016.8
20191019053003 70 284 5.0 6.0 0.00 0.00 0.00 78 1016.9
20191019052504 70 280 5.0 6.0 0.00 0.00 0.00 78 1016.8
20191019052004 70 279 5.0 5.0 0.00 0.00 0.00 78 1016.8
20191019051503 70 285 5.0 5.0 0.00 0.00 0.00 78 1016.8
20191019051004 70 286 4.0 5.0 0.00 0.00 0.00 79 1016.7
20191019050504 69 292 3.0 5.0 0.00 0.00 0.00 78 1016.6
20191019050004 70 310 2.0 4.0 0.00 0.00 0.00 77 1016.5
20191019045504 70 326 1.0 4.0 0.00 0.00 0.00 79 1016.4
20191019045004 69 321 2.0 4.0 0.00 0.00 0.00 80 1016.3
20191019044504 68 304 2.0 3.0 0.00 0.00 0.00 79 1016.4
20191019044003 68 302 2.0 3.0 0.00 0.00 0.00 78 1016.4
20191019043504 68 306 2.0 3.0 0.00 0.00 0.00 78 1016.5
20191019043004 68 308 2.0 3.0 0.00 0.00 0.00 78 1016.3
20191019042503 69 317 2.0 4.0 0.00 0.00 0.00 77 1016.2
20191019042004 69 329 2.0 4.0 0.00 0.00 0.00 78 1016.2
20191019041504 69 337 2.0 4.0 0.00 0.00 0.00 79 1016.3
20191019041003 69 330 2.0 3.0 0.00 0.00 0.00 79 1016.2
20191019040503 69 313 2.0 4.0 0.00 0.00 0.00 79 1016.2
20191019040004 69 302 2.0 4.0 0.00 0.00 0.00 77 1016.3
20191019035504 69 298 2.0 4.0 0.00 0.00 0.00 77 1016.2
20191019035003 69 301 1.0 4.0 0.00 0.00 0.00 76 1016.2
20191019034504 69 306 2.0 3.0 0.00 0.00 0.00 77 1016.2
20191019034004 69 315 2.0 3.0 0.00 0.00 0.00 77 1016.2
20191019033503 69 332 3.0 5.0 0.00 0.00 0.00 76 1016.2
20191019033004 69 325 4.0 5.0 0.00 0.00 0.00 77 1016.3
20191019032504 68 303 5.0 5.0 0.00 0.00 0.00 78 1016.2
20191019032004 68 299 5.0 6.0 0.00 0.00 0.00 77 1016.2
20191019031504 68 299 4.0 6.0 0.00 0.00 0.00 77 1016.2
20191019031003 68 295 4.0 5.0 0.00 0.00 0.00 78 1016.2
20191019030504 68 285 5.0 6.0 0.00 0.00 0.00 77 1016.3
20191019030004 68 287 6.0 6.0 0.00 0.00 0.00 77 1016.2
20191019025503 68 294 6.0 6.0 0.00 0.00 0.00 77 1016.2
20191019025004 68 295 6.0 6.0 0.00 0.00 0.00 79 1016.2
20191019024504 67 295 6.0 6.0 0.00 0.00 0.00 81 1016.2
20191019024004 67 296 6.0 7.0 0.00 0.00 0.00 79 1016.2
20191019023504 67 294 5.0 7.0 0.00 0.00 0.00 79 1016.2
20191019023004 67 295 4.0 7.0 0.00 0.00 0.00 79 1016.2
20191019022504 68 298 4.0 6.0 0.00 0.00 0.00 79 1016.2
20191019022004 68 297 3.0 5.0 0.00 0.00 0.00 79 1016.1
20191019021503 68 294 3.0 5.0 0.00 0.00 0.00 79 1016.2
20191019021004 69 294 2.0 4.0 0.00 0.00 0.00 79 1016.2
20191019020504 69 299 2.0 4.0 0.00 0.00 0.00 78 1016.1
20191019020004 69 304 2.0 4.0 0.00 0.00 0.00 78 1016.1
20191019015504 69 310 1.0 4.0 0.00 0.00 0.00 78 1016.0
20191019015004 69 315 1.0 4.0 0.00 0.00 0.00 78 1016.0
20191019014504 69 311 1.0 3.0 0.00 0.00 0.00 78 1015.9
20191019014004 69 301 1.0 3.0 0.00 0.00 0.00 78 1016.0
20191019013504 69 296 1.0 3.0 0.00 0.00 0.00 78 1016.0
20191019013004 70 293 1.0 2.0 0.00 0.00 0.00 79 1016.0
20191019012504 70 290 1.0 1.0 0.00 0.00 0.00 79 1015.9
20191019012003 70 296 1.0 2.0 0.00 0.00 0.00 79 1016.0
20191019011504 70 302 0.0 2.0 0.00 0.00 0.00 79 1015.9
20191019011004 70 0 0.0 2.0 0.00 0.00 0.00 79 1015.9
20191019010504 70 0 0.0 1.0 0.00 0.00 0.00 79 1016.0
20191019010004 70 0 0.0 1.0 0.00 0.00 0.00 79 1015.8
20191019005503 70 0 0.0 2.0 0.00 0.00 0.00 79 1015.8
20191019005004 71 0 0.0 2.0 0.00 0.00 0.00 79 1015.9
20191019004504 71 312 1.0 2.0 0.00 0.00 0.00 79 1015.9
20191019004004 71 306 2.0 2.0 0.00 0.00 0.00 80 1015.8
20191019003504 71 301 3.0 3.0 0.00 0.00 0.00 80 1015.8
20191019003003 71 295 3.0 4.0 0.00 0.00 0.00 80 1015.9
20191019002504 71 293 3.0 5.0 0.00 0.00 0.00 80 1015.8
20191019002004 71 290 3.0 5.0 0.00 0.00 0.00 80 1015.8
20191019001504 71 287 3.0 4.0 0.00 0.00 0.00 80 1015.8
20191019001004 71 294 3.0 5.0 0.00 0.00 0.00 79 1015.7
20191019000504 72 302 3.0 5.0 0.00 0.00 0.00 79 1015.8
20191019000004 72 316 3.0 5.0 0.00 0.00 0.00 79 1015.8
20191018235504 72 343 4.0 6.0 0.00 0.00 0.00 79 1015.8
20191018235004 72 348 5.0 8.0 0.00 0.00 0.00 79 1015.8
20191018234504 72 351 5.0 8.0 0.00 0.00 0.00 79 1015.9
20191018234004 72 354 6.0 8.0 0.00 0.00 0.00 79 1015.9
20191018233503 72 353 5.0 9.0 0.00 0.00 0.00 79 1015.8
20191018233004 72 352 4.0 9.0 0.00 0.00 0.00 79 1015.9
20191018232504 72 347 3.0 7.0 0.00 0.00 0.00 79 1015.9
20191018232004 72 335 2.0 7.0 0.00 0.00 0.00 79 1016.0
20191018231505 72 330 3.0 6.0 0.00 0.00 0.00 80 1016.0
20191018231004 72 339 3.0 6.0 0.00 0.00 0.00 80 1015.9
20191018230504 72 348 3.0 6.0 0.00 0.00 0.00 79 1015.9
20191018230005 72 348 4.0 6.0 0.00 0.00 0.00 79 1015.9
20191018225504 72 339 5.0 6.0 0.00 0.00 0.00 79 1015.9
20191018225004 72 345 5.0 9.0 0.00 0.00 0.00 79 1015.9
20191018224504 72 354 5.0 9.0 0.00 0.00 0.00 79 1015.9
20191018224005 72 352 5.0 9.0 0.00 0.00 0.00 79 1015.9
20191018223504 72 347 4.0 10.0 0.00 0.00 0.00 79 1015.9
20191018223004 72 342 4.0 10.0 0.00 0.00 0.00 79 1015.9
20191018222504 72 334 4.0 8.0 0.00 0.00 0.00 79 1015.9
20191018222004 72 334 5.0 7.0 0.00 0.00 0.00 79 1015.9
20191018221504 72 331 4.0 9.0 0.00 0.00 0.00 78 1015.9
20191018221004 72 322 3.0 9.0 0.00 0.00 0.00 78 1015.9
20191018220505 72 323 3.0 6.0 0.00 0.00 0.00 78 1015.9
20191018220005 72 324 3.0 5.0 0.00 0.00 0.00 78 1015.9
20191018215505 73 318 4.0 6.0 0.00 0.00 0.00 78 1015.8
20191018215004 73 314 5.0 7.0 0.00 0.00 0.00 78 1016.0
20191018214504 73 310 5.0 7.0 0.00 0.00 0.00 78 1016.0
20191018214004 73 309 5.0 10.0 0.00 0.00 0.00 78 1016.0
20191018213505 73 317 5.0 10.0 0.00 0.00 0.00 79 1016.0
20191018213004 72 332 5.0 8.0 0.00 0.00 0.00 79 1015.9
20191018212504 73 334 5.0 8.0 0.00 0.00 0.00 79 1016.0
20191018212004 73 330 4.0 9.0 0.00 0.00 0.00 79 1016.2
20191018211504 73 324 3.0 9.0 0.00 0.00 0.00 79 1016.1
20191018211005 73 326 3.0 9.0 0.00 0.00 0.00 80 1016.1
20191018210504 73 338 3.0 7.0 0.00 0.00 0.00 80 1016.2
20191018210005 73 340 3.0 7.0 0.00 0.00 0.00 80 1016.2
20191018205504 73 340 3.0 7.0 0.00 0.00 0.00 80 1016.2
20191018205004 73 346 3.0 7.0 0.00 0.00 0.00 80 1016.1
20191018204504 73 344 3.0 7.0 0.00 0.00 0.00 80 1016.1
20191018204005 73 341 3.0 6.0 0.00 0.00 0.00 80 1016.3
20191018203504 73 345 4.0 6.0 0.00 0.00 0.00 80 1016.2
20191018203004 73 341 4.0 8.0 0.00 0.00 0.00 79 1016.3
20191018202504 73 331 4.0 8.0 0.00 0.00 0.00 79 1016.3
20191018202004 73 321 4.0 8.0 0.00 0.00 0.00 79 1016.3
20191018201504 73 323 5.0 8.0 0.00 0.00 0.00 80 1016.3
20191018201004 74 324 6.0 9.0 0.00 0.00 0.00 80 1016.3
20191018200504 74 317 7.0 11.0 0.00 0.00 0.00 80 1016.4
20191018200005 74 312 8.0 12.0 0.00 0.00 0.00 80 1016.4
20191018195503 74 310 7.0 12.0 0.00 0.00 0.00 80 1016.4
20191018195002 73 309 5.0 11.0 0.00 0.00 0.00 81 1016.3
20191018194503 73 312 5.0 11.0 0.00 0.00 0.00 81 1016.4
20191018194003 74 314 5.0 8.0 0.00 0.00 0.00 82 1016.4
20191018193502 74 313 5.0 10.0 0.00 0.00 0.00 82 1016.4
20191018193002 74 316 5.0 10.0 0.00 0.00 0.00 82 1016.4
20191018192503 74 316 5.0 8.0 0.00 0.00 0.00 82 1016.2
20191018192003 74 313 6.0 9.0 0.00 0.00 0.00 82 1016.3
20191018191503 74 311 5.0 10.0 0.00 0.00 0.00 82 1016.3
20191018191002 74 310 5.0 10.0 0.00 0.00 0.00 82 1016.4
20191018190503 74 310 6.0 9.0 0.00 0.00 0.00 82 1016.4
20191018190003 74 309 5.0 9.0 0.00 0.00 0.00 82 1016.4
20191018185502 74 310 5.0 9.0 0.00 0.00 0.00 81 1016.4
20191018185003 74 315 5.0 10.0 0.00 0.00 0.00 81 1016.4
20191018184503 74 316 6.0 11.0 0.00 0.00 0.00 81 1016.3
20191018184003 74 317 6.0 11.0 0.00 0.00 0.00 81 1016.3
20191018183503 74 315 6.0 11.0 0.00 0.00 0.00 81 1016.2
20191018183003 74 315 6.0 11.0 0.00 0.00 0.00 81 1016.2
20191018182503 75 316 6.0 11.0 0.00 0.00 0.00 80 1016.3
20191018182003 75 316 6.0 11.0 0.00 0.00 0.00 80 1016.2
20191018181502 75 316 6.0 8.0 0.00 0.00 0.00 80 1016.2
20191018181003 75 318 6.0 9.0 0.00 0.00 0.00 80 1016.3
20191018180503 75 316 6.0 9.0 0.00 0.00 0.00 80 1016.4
20191018180004 75 317 6.0 10.0 0.00 0.00 0.00 79 1016.3
20191018175502 75 315 7.0 11.0 0.00 0.00 0.00 79 1016.4
20191018175003 75 313 8.0 11.0 0.00 0.00 0.00 79 1016.3
20191018174503 75 317 8.0 13.0 0.00 0.00 0.00 78 1016.3
20191018174003 75 314 8.0 15.0 0.00 0.00 0.00 78 1016.2
20191018173503 75 310 9.0 15.0 0.00 0.00 0.00 79 1016.2
20191018173003 76 309 10.0 14.0 0.00 0.00 0.00 79 1016.1
20191018172503 76 305 10.0 15.0 0.00 0.00 0.00 78 1016.2
20191018172003 76 304 9.0 15.0 0.00 0.00 0.00 78 1016.2
20191018171503 76 306 9.0 15.0 0.00 0.00 0.00 78 1016.1
20191018171003 76 308 7.0 13.0 0.00 0.00 0.00 77 1016.0
20191018170503 76 308 7.0 13.0 0.00 0.00 0.00 77 1016.0
20191018170003 76 311 6.0 13.0 0.00 0.00 0.00 76 1015.8
20191018165503 76 312 6.0 9.0 0.00 0.00 0.00 75 1015.8
20191018165003 77 310 5.0 9.0 0.00 0.00 0.00 75 1015.8
20191018164503 77 310 5.0 9.0 0.00 0.00 0.00 75 1015.8
20191018164002 77 312 6.0 9.0 0.00 0.00 0.00 74 1015.8
20191018163503 77 312 6.0 11.0 0.00 0.00 0.00 74 1015.9
20191018163003 77 309 6.0 11.0 0.00 0.00 0.00 73 1015.8
20191018162503 77 303 6.0 11.0 0.00 0.00 0.00 73 1015.9
20191018162003 78 303 6.0 11.0 0.00 0.00 0.00 72 1015.8
20191018161503 78 305 8.0 9.0 0.00 0.00 0.00 72 1015.8
20191018161003 78 301 9.0 11.0 0.00 0.00 0.00 72 1015.8
20191018160503 78 299 9.0 12.0 0.00 0.00 0.00 72 1015.8
20191018160003 78 299 9.0 12.0 0.00 0.00 0.00 71 1015.7
20191018155504 79 300 9.0 13.0 0.00 0.00 0.00 71 1015.7
20191018155003 79 297 10.0 14.0 0.00 0.00 0.00 70 1015.7
20191018154503 79 293 10.0 14.0 0.00 0.00 0.00 69 1015.6
20191018154003 79 290 10.0 13.0 0.00 0.00 0.00 68 1015.7
20191018153503 79 286 9.0 12.0 0.00 0.00 0.00 68 1015.6
20191018153003 79 282 10.0 12.0 0.00 0.00 0.00 68 1015.6
20191018152503 79 265 11.0 12.0 0.00 0.00 0.00 70 1015.5
20191018152003 79 238 11.0 13.0 0.00 0.00 0.00 71 1015.5
20191018151503 79 233 10.0 15.0 0.00 0.00 0.00 71 1015.4
20191018151003 79 238 10.0 15.0 0.00 0.00 0.00 70 1015.4
20191018150503 79 231 10.0 12.0 0.00 0.00 0.00 73 1015.4
20191018150003 79 233 12.0 12.0 0.00 0.00 0.00 72 1015.5
20191018145502 79 232 13.0 14.0 0.00 0.00 0.00 72 1015.4
20191018145003 79 233 14.0 15.0 0.00 0.00 0.00 71 1015.3
20191018144503 80 235 14.0 15.0 0.00 0.00 0.00 70 1015.2
20191018144003 80 227 14.0 15.0 0.00 0.00 0.00 70 1015.3
20191018143503 80 224 14.0 15.0 0.00 0.00 0.00 71 1015.3
20191018143003 80 228 13.0 15.0 0.00 0.00 0.00 70 1015.3
20191018142504 80 233 13.0 15.0 0.00 0.00 0.00 69 1015.4
20191018142003 80 236 13.0 17.0 0.00 0.00 0.00 69 1015.2
20191018141502 80 237 12.0 17.0 0.00 0.00 0.00 69 1015.3
20191018141003 80 238 12.0 15.0 0.00 0.00 0.00 66 1015.1
20191018140503 80 237 13.0 14.0 0.00 0.00 0.00 68 1015.3
20191018140004 80 239 12.0 15.0 0.00 0.00 0.00 68 1015.2
20191018135503 80 239 12.0 15.0 0.00 0.00 0.00 68 1015.2
20191018135003 80 228 12.0 14.0 0.00 0.00 0.00 69 1015.2
20191018134503 80 216 13.0 14.0 0.00 0.00 0.00 71 1015.3
20191018134003 80 216 14.0 16.0 0.00 0.00 0.00 70 1015.3
20191018133503 80 221 15.0 16.0 0.00 0.00 0.00 70 1015.3
20191018133003 80 226 15.0 18.0 0.00 0.00 0.00 69 1015.3
20191018132503 80 228 16.0 18.0 0.00 0.00 0.00 68 1015.3
20191018132003 80 230 16.0 19.0 0.00 0.00 0.00 68 1015.4
20191018131511 80 222 15.0 19.0 0.00 0.00 0.00 68 1015.3
20191018131002 80 219 14.0 18.0 0.00 0.00 0.00 67 1015.3
20191018130503 80 225 15.0 18.0 0.00 0.00 0.00 69 1015.3
20191018130003 80 221 17.0 18.0 0.00 0.00 0.00 68 1015.4
20191018125503 79 219 18.0 21.0 0.00 0.00 0.00 69 1015.5
20191018125004 79 220 18.0 21.0 0.00 0.00 0.00 68 1015.6
20191018124503 79 226 18.0 22.0 0.00 0.00 0.00 68 1015.6
20191018124003 79 229 17.0 22.0 0.00 0.00 0.00 71 1015.7
20191018123503 80 220 17.0 20.0 0.00 0.00 0.00 72 1015.7
20191018123003 80 219 18.0 20.0 0.00 0.00 0.00 73 1015.7
20191018122503 80 229 16.0 21.0 0.00 0.00 0.00 72 1015.6
20191018122003 80 225 15.0 21.0 0.00 0.00 0.00 72 1015.6
20191018121503 80 213 15.0 18.0 0.00 0.00 0.00 74 1015.7
20191018121003 80 216 16.0 19.0 0.00 0.00 0.00 73 1015.7
20191018120503 80 221 16.0 19.0 0.00 0.00 0.00 71 1015.6
20191018120003 79 222 15.0 19.0 0.00 0.00 0.00 73 1015.7
20191018115503 79 222 14.0 19.0 0.00 0.00 0.00 72 1015.8
20191018115009 80 216 14.0 19.0 0.00 0.00 0.00 69 1015.8
20191018114504 80 219 13.0 18.0 0.00 0.00 0.00 68 1015.9
20191018114003 80 217 10.0 18.0 0.00 0.00 0.00 69 1015.8
20191018113503 80 204 10.0 15.0 0.00 0.00 0.00 67 1015.9
20191018113003 81 187 11.0 15.0 0.00 0.00 0.00 67 1015.8
20191018112503 80 173 11.0 15.0 0.00 0.00 0.00 68 1015.8
20191018112004 80 169 11.0 14.0 0.00 0.00 0.00 68 1015.8
20191018111503 81 169 10.0 17.0 0.00 0.00 0.00 68 1015.9